• In India
  • List of Countries
  • For 7 days
  • Water Temperature
  • Satellite Maps
  • Weather Map
  • Weather Widgets
  • user-avatar
    Login

    Hourly Weather Mostar

    Today, 20 August, Monday

    Time Temperature Precipitation Wind Pressure Humidity
    00:00 +24°C° 0 mm 3 mps 754 mmHg 70%
    01:00 +24°C° 0 mm 3 mps 754 mmHg 74%
    02:00 +22°C° 0 mm 3 mps 754 mmHg 74%
    03:00 +22°C° 0 mm 3 mps 754 mmHg 74%
    04:00 +22°C° 0 mm 3 mps 754 mmHg 74%
    05:00 +24°C° 0 mm 3 mps 754 mmHg 71%
    06:00 +25°C° 0 mm 3 mps 754 mmHg 69%
    07:00 +27°C° 0 mm 3 mps 754 mmHg 64%
    08:00 +29°C° 0 mm 3 mps 754 mmHg 57%
    09:00 +31°C° 0 mm 3 mps 754 mmHg 50%
    10:00 +34°C° 0 mm 2 mps 754 mmHg 43%
    11:00 +34°C° 0 mm 2 mps 754 mmHg 42%
    12:00 +35°C° 0 mm 2 mps 754 mmHg 40%
    13:00 +35°C° 0 mm 3 mps 754 mmHg 39%
    14:00 +35°C° 0 mm 2 mps 753 mmHg 41%
    15:00 +34°C° 0 mm 2 mps 753 mmHg 44%
    16:00 +34°C° 0 mm 2 mps 753 mmHg 46%
    17:00 +31°C° 0 mm 2 mps 753 mmHg 51%
    18:00 +30°C° 0 mm 2 mps 753 mmHg 55%
    19:00 +28°C° 0 mm 2 mps 753 mmHg 60%
    20:00 +27°C° 0 mm 2 mps 754 mmHg 61%
    21:00 +26°C° 0 mm 2 mps 754 mmHg 63%
    22:00 +25°C° 0 mm 2 mps 754 mmHg 64%
    23:00 +25°C° 0 mm 3 mps 754 mmHg 65%

    Tomorrow, 21 August, Tuesday

    Time Temperature Precipitation Wind Pressure Humidity
    00:00 +24°C° 0 mm 3 mps 754 mmHg 66%
    01:00 +24°C° 0 mm 3 mps 754 mmHg 66%
    02:00 +24°C° 0 mm 3 mps 754 mmHg 67%
    03:00 +22°C° 0 mm 3 mps 754 mmHg 67%
    04:00 +22°C° 0 mm 3 mps 754 mmHg 68%
    05:00 +24°C° 0 mm 3 mps 754 mmHg 66%
    06:00 +25°C° 0 mm 3 mps 754 mmHg 64%
    07:00 +26°C° 0 mm 3 mps 754 mmHg 62%
    08:00 +28°C° 0 mm 2 mps 754 mmHg 56%
    09:00 +30°C° 0 mm 2 mps 754 mmHg 49%
    10:00 +34°C° 0 mm 2 mps 754 mmHg 43%
    11:00 +34°C° 0 mm 2 mps 754 mmHg 41%
    12:00 +35°C° 0 mm 2 mps 754 mmHg 40%
    13:00 +35°C° 0 mm 3 mps 754 mmHg 39%
    14:00 +35°C° 0 mm 2 mps 754 mmHg 42%
    15:00 +34°C° 0 mm 2 mps 754 mmHg 45%
    16:00 +32°C° 0 mm 2 mps 754 mmHg 48%
    17:00 +31°C° 0 mm 2 mps 754 mmHg 53%
    18:00 +29°C° 0 mm 1 mps 754 mmHg 57%
    19:00 +27°C° 0 mm 1 mps 754 mmHg 62%
    20:00 +27°C° 0.1 mm 1 mps 754 mmHg 63%
    21:00 +26°C° 0.1 mm 2 mps 754 mmHg 65%
    22:00 +25°C° 0.1 mm 2 mps 755 mmHg 66%
    23:00 +25°C° 0 mm 2 mps 755 mmHg 67%

    Day after tomorrow, 22 August, Wednesday

    Time Temperature Precipitation Wind Pressure Humidity
    00:00 +25°C° 0 mm 2 mps 755 mmHg 68%
    01:00 +24°C° 0 mm 2 mps 755 mmHg 69%
    02:00 +24°C° 0 mm 2 mps 755 mmHg 69%
    03:00 +24°C° 0 mm 2 mps 755 mmHg 70%
    04:00 +23°C° 0 mm 2 mps 755 mmHg 70%
    05:00 +25°C° 0 mm 2 mps 755 mmHg 68%
    06:00 +26°C° 0 mm 2 mps 755 mmHg 66%
    07:00 +27°C° 0 mm 2 mps 755 mmHg 63%
    08:00 +29°C° 0 mm 2 mps 755 mmHg 56%
    09:00 +31°C° 0 mm 1 mps 755 mmHg 49%
    10:00 +33°C° 0 mm 1 mps 755 mmHg 41%
    11:00 +33°C° 0 mm 1 mps 755 mmHg 40%
    12:00 +35°C° 0 mm 2 mps 755 mmHg 39%
    13:00 +35°C° 0 mm 2 mps 755 mmHg 38%
    14:00 +34°C° 0 mm 2 mps 754 mmHg 43%
    15:00 +32°C° 0 mm 2 mps 754 mmHg 47%
    16:00 +32°C° 0 mm 2 mps 754 mmHg 51%
    17:00 +30°C° 0 mm 2 mps 754 mmHg 55%
    18:00 +29°C° 0 mm 1 mps 754 mmHg 58%
    19:00 +28°C° 0 mm 1 mps 754 mmHg 62%
    20:00 +27°C° 0.2 mm 1 mps 755 mmHg 64%
    21:00 +26°C° 0.2 mm 1 mps 755 mmHg 66%
    22:00 +26°C° 0.2 mm 1 mps 755 mmHg 68%
    23:00 +25°C° 0.2 mm 2 mps 755 mmHg 68%

    23 August, Thursday

    Time Temperature Precipitation Wind Pressure Humidity
    00:00 +25°C° 0.2 mm 2 mps 755 mmHg 68%
    01:00 +25°C° 0.2 mm 2 mps 755 mmHg 68%
    02:00 +24°C° 0.1 mm 2 mps 755 mmHg 69%
    03:00 +24°C° 0.1 mm 2 mps 754 mmHg 69%
    04:00 +24°C° 0.1 mm 2 mps 754 mmHg 69%
    05:00 +25°C° 0 mm 2 mps 754 mmHg 66%
    06:00 +26°C° 0 mm 2 mps 754 mmHg 64%
    07:00 +27°C° 0 mm 2 mps 754 mmHg 61%
    08:00 +29°C° 0 mm 1 mps 754 mmHg 54%
    09:00 +31°C° 0 mm 1 mps 754 mmHg 47%
    10:00 +33°C° 0 mm 1 mps 754 mmHg 40%
    11:00 +33°C° 0 mm 1 mps 754 mmHg 41%
    12:00 +34°C° 0 mm 2 mps 753 mmHg 42%
    13:00 +34°C° 0 mm 2 mps 753 mmHg 43%
    14:00 +34°C° 0 mm 2 mps 753 mmHg 47%
    15:00 +32°C° 0 mm 2 mps 753 mmHg 50%
    16:00 +31°C° 0 mm 2 mps 752 mmHg 54%
    17:00 +30°C° 0.5 mm 2 mps 752 mmHg 59%
    18:00 +28°C° 0.5 mm 2 mps 752 mmHg 64%
    19:00 +27°C° 0.5 mm 1 mps 752 mmHg 70%
    20:00 +26°C° 0.5 mm 1 mps 753 mmHg 72%
    21:00 +26°C° 0.5 mm 2 mps 753 mmHg 73%
    22:00 +25°C° 0.5 mm 2 mps 753 mmHg 75%
    23:00 +25°C° 0.1 mm 2 mps 753 mmHg 75%

    24 August, Friday

    Time Temperature Precipitation Wind Pressure Humidity
    00:00 +25°C° 0.1 mm 1 mps 753 mmHg 74%
    01:00 +24°C° 0.1 mm 1 mps 753 mmHg 74%
    02:00 +24°C° 0 mm 1 mps 752 mmHg 73%
    03:00 +24°C° 0 mm 1 mps 752 mmHg 73%
    04:00 +24°C° 0 mm 1 mps 752 mmHg 73%
    05:00 +25°C° 0 mm 1 mps 752 mmHg 70%
    06:00 +26°C° 0 mm 1 mps 752 mmHg 68%
    07:00 +27°C° 0 mm 1 mps 752 mmHg 65%
    08:00 +28°C° 0.2 mm 1 mps 752 mmHg 60%
    09:00 +30°C° 0.2 mm 2 mps 752 mmHg 55%
    10:00 +31°C° 0.2 mm 2 mps 752 mmHg 50%
    11:00 +32°C° 0.7 mm 2 mps 752 mmHg 50%
    12:00 +32°C° 0.7 mm 2 mps 751 mmHg 51%
    13:00 +33°C° 0.7 mm 3 mps 751 mmHg 51%
    14:00 +32°C° 0.8 mm 2 mps 751 mmHg 54%
    15:00 +31°C° 0.8 mm 2 mps 751 mmHg 57%
    16:00 +30°C° 0.8 mm 2 mps 750 mmHg 60%
    17:00 +29°C° 0.4 mm 1 mps 750 mmHg 65%
    18:00 +27°C° 0.4 mm 1 mps 750 mmHg 70%
    19:00 +24°C° 0.4 mm 0 mps 751 mmHg 75%
    20:00 +25°C° 0.1 mm 1 mps 751 mmHg 77%
    21:00 +25°C° 0.1 mm 1 mps 751 mmHg 79%
    22:00 +24°C° 0.1 mm 1 mps 751 mmHg 81%
    23:00 +24°C° 0 mm 1 mps 751 mmHg 82%

    25 August, Saturday

    Time Temperature Precipitation Wind Pressure Humidity
    00:00 +23°C° 0 mm 1 mps 751 mmHg 83%
    01:00 +23°C° 0 mm 1 mps 751 mmHg 84%
    02:00 +23°C° 0 mm 2 mps 751 mmHg 83%
    03:00 +23°C° 0 mm 2 mps 751 mmHg 83%
    04:00 +21°C° 0 mm 2 mps 751 mmHg 82%
    05:00 +23°C° 0 mm 2 mps 751 mmHg 79%
    06:00 +24°C° 0 mm 2 mps 751 mmHg 75%
    07:00 +25°C° 0 mm 2 mps 751 mmHg 71%
    08:00 +27°C° 0 mm 2 mps 752 mmHg 65%
    09:00 +28°C° 0 mm 2 mps 752 mmHg 58%
    10:00 +30°C° 0 mm 2 mps 752 mmHg 51%
    11:00 +31°C° 0 mm 2 mps 751 mmHg 50%
    12:00 +31°C° 0 mm 3 mps 751 mmHg 48%
    13:00 +33°C° 0 mm 3 mps 751 mmHg 47%
    14:00 +31°C° 0 mm 3 mps 750 mmHg 49%
    15:00 +31°C° 0 mm 3 mps 750 mmHg 51%
    16:00 +30°C° 0 mm 3 mps 750 mmHg 53%
    17:00 +29°C° 0.1 mm 3 mps 750 mmHg 60%
    18:00 +27°C° 0.1 mm 2 mps 750 mmHg 66%
    19:00 +25°C° 0.1 mm 2 mps 750 mmHg 73%
    20:00 +25°C° 0 mm 2 mps 750 mmHg 74%
    21:00 +24°C° 0 mm 2 mps 751 mmHg 75%
    22:00 +24°C° 0 mm 2 mps 751 mmHg 76%
    23:00 +24°C° 0 mm 2 mps 751 mmHg 76%
    Show more